N2TPQ-13 Weather Reports


Display with metric or nautical units.
time (UTC)temp
F
wind
direction
speed
MPH
gust
MPH
rain 1hr
in
rain 24hr
in
rain mn
in
humidity
%
barometer
mb
20260507040039 43 45 0.0 3.0 0.00 0.50 0.00 98 1013.2
20260507034551 43 0 1.0 8.0 0.00 0.50 0.50 99 1012.8
20260507033044 43 23 1.0 3.0 0.00 0.50 0.50 98 1012.8
20260507031546 42 0 0.0 0.0 0.00 0.50 0.50 98 1013.0
20260507030050 42 0 0.0 0.0 0.00 0.50 0.50 98 1013.1
20260507024543 42 0 0.0 0.0 0.00 0.50 0.50 98 1013.0
20260507023038 42 0 0.0 0.0 0.00 0.50 0.50 98 1013.1
20260507021539 42 0 0.0 0.0 0.00 0.50 0.50 98 1013.1
20260507020039 42 0 0.0 0.0 0.00 0.50 0.50 98 1013.2
20260507014546 42 0 0.0 0.0 0.00 0.50 0.50 98 1013.3
20260507013037 42 0 0.0 0.0 0.00 0.50 0.50 98 1013.5
20260507011541 42 0 0.0 0.0 0.00 0.50 0.50 98 1013.1
20260507010044 42 0 0.0 0.0 0.00 0.50 0.50 98 1013.2
20260507004539 42 0 0.0 0.0 0.00 0.50 0.50 97 1012.9
20260507003038 43 0 0.0 0.0 0.00 0.50 0.50 98 1012.8
20260507001540 43 0 0.0 0.0 0.00 0.50 0.50 98 1012.8
20260507000040 43 0 0.0 0.0 0.00 0.50 0.50 98 1012.7
20260506234539 43 24 0.0 0.0 0.00 0.50 0.50 98 1012.6
20260506233045 43 0 0.0 0.0 0.00 0.50 0.50 97 1012.3
20260506231538 43 0 0.0 0.0 0.00 0.50 0.50 97 1012.1
20260506230039 43 0 0.0 2.0 0.00 0.50 0.50 97 1012.0
20260506224537 43 21 0.0 2.0 0.00 0.50 0.50 98 1011.8
20260506223042 43 21 0.0 3.0 0.00 0.50 0.50 98 1011.7
20260506221540 43 22 2.0 5.0 0.00 0.50 0.50 98 1011.8
20260506220042 44 0 1.0 3.0 0.00 0.50 0.50 98 1012.0
20260506214538 43 0 0.0 4.0 0.00 0.50 0.50 98 1011.7
20260506213037 43 14 1.0 7.0 0.00 0.50 0.50 98 1011.7
20260506211538 43 16 2.0 5.0 0.00 0.50 0.50 98 1011.6
20260506210039 43 15 3.0 6.0 0.00 0.50 0.50 99 1011.7
20260506204549 44 5 1.0 5.0 0.00 0.50 0.50 99 1011.2
20260506203042 43 26 2.0 7.0 0.01 0.50 0.50 98 1010.9
20260506201538 44 334 2.0 7.0 0.01 0.50 0.50 98 1010.8
20260506200038 44 355 2.0 7.0 0.02 0.50 0.50 98 1010.7
20260506194537 44 51 1.0 5.0 0.02 0.54 0.50 99 1010.4
20260506193040 44 28 1.0 4.0 0.01 0.52 0.49 99 1010.3
20260506191538 44 31 1.0 3.0 0.02 0.52 0.49 98 1010.3
20260506190037 44 13 1.0 4.0 0.02 0.52 0.48 99 1010.3
20260506184536 44 0 2.0 7.0 0.03 0.52 0.48 99 1010.3
20260506183040 44 195 1.0 3.0 0.02 0.51 0.47 99 1009.9
20260506181537 44 31 1.0 5.0 0.02 0.51 0.47 99 1009.7
20260506180048 44 123 0.0 5.0 0.01 0.50 0.46 99 1009.6
20260506174542 44 55 0.0 4.0 0.01 0.49 0.45 99 1009.3
20260506173038 44 67 0.0 5.0 0.01 0.49 0.45 99 1009.2
20260506171547 44 191 1.0 3.0 0.01 0.49 0.45 99 1009.0
20260506170056 43 0 1.0 4.0 0.01 0.49 0.45 98 1009.2
20260506164538 44 135 1.0 5.0 0.00 0.48 0.44 98 1009.1
20260506163056 44 111 1.0 3.0 0.01 0.48 0.44 98 1009.1
20260506161535 44 34 0.0 3.0 0.01 0.48 0.44 99 1009.0
20260506160042 44 78 0.0 2.0 0.02 0.48 0.44 99 1008.9
20260506154605 43 0 1.0 4.0 0.01 0.47 0.43 98 1009.0
20260506153046 43 61 0.0 3.0 0.01 0.47 0.43 98 1009.1
20260506151536 43 288 0.0 2.0 0.02 0.47 0.43 98 1008.9
20260506150035 43 0 0.0 3.0 0.01 0.46 0.42 98 1009.0
20260506144538 43 130 1.0 4.0 0.03 0.46 0.42 98 1008.8
20260506143048 43 200 1.0 3.0 0.06 0.46 0.42 98 1008.7
20260506141541 43 0 1.0 3.0 0.07 0.45 0.41 98 1008.7
20260506140038 43 208 0.0 3.0 0.08 0.45 0.41 98 1008.7
20260506134536 44 0 0.0 3.0 0.10 0.43 0.39 98 1008.8
20260506133040 44 0 0.0 2.0 0.12 0.40 0.36 98 1008.9
20260506131538 44 0 0.0 2.0 0.13 0.38 0.34 98 1008.9
20260506130039 44 188 1.0 4.0 0.14 0.37 0.33 98 1008.8
20260506124537 44 88 2.0 6.0 0.12 0.33 0.29 98 1009.2
20260506123037 45 61 2.0 7.0 0.08 0.28 0.24 97 1009.1
20260506121545 46 131 0.0 2.0 0.07 0.25 0.21 98 1008.7
20260506120052 47 0 1.0 3.0 0.07 0.23 0.19 98 1008.5
20260506114544 47 297 0.0 2.0 0.07 0.21 0.17 98 1008.3
20260506113037 47 0 0.0 2.0 0.07 0.20 0.16 98 1008.3
20260506111539 47 0 0.0 2.0 0.06 0.18 0.14 98 1008.3
20260506110042 47 0 0.0 2.0 0.06 0.16 0.12 98 1008.6
20260506104539 47 0 0.0 3.0 0.05 0.16 0.10 98 1008.6
20260506103037 47 295 1.0 3.0 0.06 0.15 0.09 98 1008.8
20260506101542 46 291 0.0 1.0 0.06 0.14 0.08 98 1008.7
20260506100047 46 0 0.0 3.0 0.05 0.12 0.06 98 1009.0
20260506094548 46 291 0.0 2.0 0.04 0.11 0.05 98 1008.9
20260506093043 46 294 0.0 4.0 0.03 0.09 0.03 98 1008.9
20260506091538 46 117 0.0 4.0 0.02 0.08 0.02 98 1009.3
20260506090038 46 167 0.0 0.0 0.01 0.07 0.01 98 1009.5
20260506084538 46 0 0.0 0.0 0.01 0.07 0.01 98 1009.2
20260506083038 46 0 0.0 0.0 0.00 0.06 0.00 98 1008.8
20260506081538 45 0 0.0 0.0 0.00 0.06 0.00 98 1009.0
20260506073043 45 0 0.0 4.0 0.00 0.06 0.00 97 1009.1
20260506071537 45 166 1.0 3.0 0.00 0.06 0.00 97 1009.3
20260506061538 45 163 0.0 2.0 0.00 0.06 0.00 97 1010.3
20260506044544 46 0 0.0 2.0 0.00 0.06 0.00 94 1011.3
20260506043036 46 0 0.0 0.0 0.00 0.06 0.00 93 1011.5
20260506041539 46 0 0.0 1.0 0.00 0.06 0.00 93 1011.1